Regional Weather Roundup
Issued by NWS Newport/Morehead, NC

Current Version | Previous Version | Graphics & Text | Print | Product List | Glossary Off
Versions: 1 2 3 4 5 6 7 8 9 10 11 12 13 14 15 16 17 18 19 20 21 22 23 24 25 26 27 28 29 30 31 32 33 34 35 36 37 38 39 40 41 42 43 44 45 46 47 48 49 50

000
ASUS42 KMHX 300425
RWRMHX
WEATHER ROUNDUP FOR EASTERN NORTH CAROLINA
NATIONAL WEATHER SERVICE NEWPORT/MOREHEAD CITY NC
1200 AM EDT SAT MAY 30 2015

NOTE: "FAIR" INDICATES FEW OR NO CLOUDS BELOW 12,000 FEET
WITH NO SIGNIFICANT WEATHER AND/OR OBSTRUCTIONS TO VISIBILITY

NCZ015>017-031-032-045>047-102-103-300500-
NORTH COAST

CITY           SKY/WX    TMP DP  RH WIND       PRES   REMARKS
EDENTON        CLEAR     71  67  87 SE5       30.22F
ELIZABETH CITY CLEAR     72  69  90 S6        30.23S
KITTY HAWK       N/A     72  69  91 SE3       30.22S
MANTEO         CLEAR     72  69  91 SE6       30.23F

$$

NCZ045>047-081-094-103-104-300500-
CENTRAL COAST

CITY           SKY/WX    TMP DP  RH WIND       PRES   REMARKS
FRISCO         CLEAR     75  65  70 SE10      30.23S
SWANQUARTER      N/A     73 N/A N/A SE3       30.18F

$$

NCZ095-097-098-100-101-300500-
SOUTHERN COAST

CITY           SKY/WX    TMP DP  RH WIND       PRES   REMARKS
BEAUFORT       CLEAR     74  67  78 SE7       30.22S
CEDAR ISLAND     N/A     73 N/A N/A SE8       30.27S
JACKSONVILLE   PTCLDY    73  68  84 SE3       30.21S
PINEY ISLAND   CLEAR    N/A N/A N/A SE6       30.22S
WILMINGTON     PTCLDY    75  68  78 S5        30.21S


$$

NCZ011>013-027>030-043-044-078>080-089-090>093-098-300500-
COASTAL PLAIN

CITY           SKY/WX    TMP DP  RH WIND       PRES   REMARKS
AHOSKIE        CLEAR     69  66  91 SE3       30.22S
CLINTON        CLEAR     71  68  91 CALM      30.21F
ELIZABETHTOWN  CLEAR     70  66  88 CALM      30.21S
GOLDSBORO      CLEAR     72  66  83 CALM      30.19F
GREENVILLE     CLEAR     72  68  88 SE3       30.23S
HAVELOCK       CLEAR     69  66  90 E3        30.23S
KENANSVILLE    PTCLDY    67  65  93 CALM      30.23S
KINSTON        CLEAR     73  67  83 SE3       30.22F
NEW BERN       CLEAR     69  66  90 CALM      30.23S
RICHLANDS      CLEAR     66  63  88 CALM      30.21F
ROCKY MOUNT    CLEAR     73  67  81 SE3       30.21F
WASHINGTON     CLEAR     71  67  87 CALM      30.22F
WHITEVILLE     CLEAR     68  65  91 CALM      30.21R

$$

AMZ130-135-150-152-154-156-158-170-250-252-270-ANZ085-086-088-633-658-670-300500-
MARINE OBSERVATIONS

STATION/POSITION TIME  TEMP    WIND        PRES    WAVE   SWELL
                       AIR SEA DIR/SP/G            HT/PER HT/PER
                 (UTC) (F)     (DEG/KT/KT) (MB)    (FT/S) (FT/S)
CHESAPEAKE LIGHT 0400   69     150/ 16/ 16 1024.0
64 E VA BEACH    0350   69 67  120/  8/  8 1023.5    3/ 8   3/ 8
DUCK             0400   71 59  150/ 10/ 10 1022.5
2 E DUCK         0311      66                N/A     3/ 9
OREGON INLET     0400   72 76  110/  4/  5 1023.5
13E OREGON INLT  0400      75                N/A     3/ 8
HATTERAS CG      0400   75 78  140/  7/ 11 1023.1
DIAMOND BUOY     0350   76 80  120/ 12/ 16 1023.5    4/ 8   3/ 8
CAPE LOOKOUT     0400   75     120/  9/ 10 1023.0
BEAUFORT LAB     0400   74 77  140/  6/  8 1022.4
27 SE WRIGHTSVLE 0300      76  140/ 10/ 14   N/A
5 SE WRIGHTSVLE  0308   77 78  150/ 10/ 14 1022.9
225 S CAPE HAT   0350   74 75   80/ 16/ 17 1022.1    6/ 9   5/ 9
41 SE CHARLESTON 0350   77 78   90/ 12/ 16 1021.3    5/ 9   3/ 9

$$


USA.gov is the U.S. government's official web portal to all federal, state and local government web resources and services.